Regional Weather Roundup
Issued by NWS

Home | Current Version | Previous Version | Graphics & Text | Print | Product List | Glossary On
Versions: 1 2 3 4 5 6 7 8 9 10 11 12 13 14 15 16 17 18 19 20 21 22 23 24 25 26 27 28 29 30 31 32 33 34 35 36 37 38 39 40 41 42 43 44 45 46 47 48 49 50
000
ASUS43 KMPX 280410
RWRMN
WEATHER ROUNDUP FOR MINNESOTA
NATIONAL WEATHER SERVICE TWIN CITIES/CHANHASSEN MN
1100 PM CDT WED MAY 27 2015


NOTE: "FAIR" INDICATES FEW OR NO CLOUDS BELOW 12,000 FEET WITH NO
SIGNIFICANT WEATHER AND/OR OBSTRUCTIONS TO VISIBILITY. N/A MEANS
CURRENT SKY AND/OR WEATHER CONDITIONS ARE NOT AVAILABLE.

MNZ060>063-068>070-280500-
   Twin Cities Metro

CITY           SKY/WX    TMP DP  RH WIND       PRES   REMARKS
TWIN CITIES    PTCLDY    71  55  56 S3        30.03R
ST PAUL        CLEAR     63  57  81 CALM      30.03R
CRYSTAL        PTCLDY    65  56  72 S3        30.01R
BLAINE         CLEAR     63  57  82 CALM      30.02R
LAKEVILLE      CLEAR     66  57  72 SW3       30.04R
EDEN PRAIRIE   CLEAR     68  56  65 CALM      30.02R
SOUTH ST PAUL  CLEAR     66  56  69 CALM      30.03R
LAKE ELMO      FAIR      61  59  94 CALM      30.04R
$$
MNZ001>005-007-008-013>017-022>024-027-028-280500-
   Northwest Minnesota

CITY           SKY/WX    TMP DP  RH WIND       PRES   REMARKS
BEMIDJI        PTCLDY    59  52  76 NE3       30.02R
HALLOCK        MOCLDY    59  46  63 NE7       30.00S
ROSEAU         PTCLDY    59  48  67 E6        30.02S
WARROAD        PTCLDY    59  54  82 NE7       30.03S
THIEF RVR FALL PTCLDY    64  48  55 E6        30.01R
CROOKSTON      MOCLDY    63  50  63 CALM      30.01R
FOSSTON        PTCLDY    59  45  58 E3        30.02S
DETROIT LAKES  MOCLDY    64  55  72 CALM      30.02S
MOORHEAD       CLOUDY    70  54  56 NW12      30.00S
PARK RAPIDS    PTCLDY    66  53  63 CALM      30.02R
MAHNOMEN       FAIR      64  55  72 E3        30.00S
$$
MNZ006-009>011-018-025>026-280500-
   North Central Minnesota

CITY           SKY/WX    TMP DP  RH WIND       PRES   REMARKS
BAUDETTE       CLEAR     53  48  83 CALM      30.03R
FLAG ISLAND    CLEAR     61  45  55 E7        30.03R
INTL FALLS     CLEAR     50  46  86 CALM      30.03R
WASKISH        CLEAR     55  48  76 CALM      30.03S
BIG FORK       CLEAR     54  48  82 CALM      30.04R
LONGVILLE      PTCLDY    57  55  94 CALM      30.02S
GRAND RAPIDS   PTCLDY    57  48  72 CALM      30.03S
CRANE LAKE     CLEAR     48  45  87 CALM      30.05S
ORR            CLEAR     54  46  76 CALM      30.01S
COOK           CLEAR     54  48  82 CALM      30.04R
WALKER         FAIR      59  54  84 CALM      30.02R
$$
MNZ012-019>021-037-280500-
   Northeast Minnesota

CITY           SKY/WX    TMP DP  RH WIND       PRES   REMARKS
DULUTH         CLEAR     62  51  67 CALM      30.03R
HIBBING        CLEAR     54  48  80 NW3       30.03R
EVELETH        CLEAR     57  50  77 CALM      30.05R
DULUTH HARBOR  CLEAR     54  48  82 NE22      30.04R
TWO HARBORS    CLEAR     64  54  68 NE8       30.03R
SILVER BAY     CLEAR     57  48  72 NE8       30.05R
GRAND MARAIS     N/A     46  41  82 CALM      30.06R
G MARAIS ARPRT CLEAR     55  43  62 CALM      30.08R
$$
MNZ029>031-032-039>041-046>048-054>057-064-280500-
   West Central Minnesota

CITY           SKY/WX    TMP DP  RH WIND       PRES   REMARKS
FERGUS FALLS   MOCLDY    72  52  49 E5        29.99S
WHEATON        MOCLDY    63  55  77 SE7       30.00S
MORRIS         PTCLDY    66  54  63 SE6       29.99S
ALEXANDRIA     PTCLDY    66  55  67 CALM      30.03S
ELBOW LAKE     FAIR      69  55  60 E5        30.00S
WADENA         PTCLDY    61  52  72 CALM      30.02R
GLENWOOD       CLEAR     66  54  63 SE3       30.03S
APPLETON       PTCLDY    66  54  63 E6        29.99S
BENSON         CLEAR     68  52  56 CALM      30.00S
ORTONVILLE     MOCLDY    72  52  49 SE6       29.99S
MADISON        MOCLDY    70  50  49 SE5       30.00R
WILLMAR        FAIR      66  57  72 CALM      30.03R
$$
MNZ033>034-036-042>043-049>051-058-059-280500-
   Central Minnesota

CITY           SKY/WX    TMP DP  RH WIND       PRES   REMARKS
ST CLOUD       CLEAR     61  55  81 CALM      30.01R
SAUK CENTRE    FAIR      63  55  77 E3        30.03S
PAYNESVILLE    CLEAR     58  55  88 CALM      30.03S
AITKIN         PTCLDY    59  54  82 CALM      30.01R
PINE RIVER     PTCLDY    61  54  77 CALM      30.05R HAZE
BRAINERD       PTCLDY    58  55  90 CALM      30.02R
STAPLES        CLEAR     61  54  77 CALM      30.02S
LONG PRAIRIE   HAZE      61  55  82 CALM      30.03S VSB 1/4
LITTLE FALLS   CLEAR     59  52  77 CALM      30.02S
LITCHFIELD     CLEAR     64  54  68 CALM      30.03S
BUFFALO        PTCLDY    64  58  82 CALM      30.03R
MAPLE LAKE     CLEAR     62  59  91 CALM      30.03S
$$
MNZ037-044-045-052-053-280500-
   East Central Minnesota

CITY           SKY/WX    TMP DP  RH WIND       PRES   REMARKS
PRINCETON      PTCLDY    63  57  82 CALM      30.02S
MORA           CLEAR     55  52  88 CALM      30.04R
CAMBRIDGE      CLEAR     66  54  63 CALM      30.01R
RUSH CITY      PTCLDY    61  59  92 CALM      30.02R
MOOSE LAKE     PTCLDY    55  54  94 CALM      30.01R
HINCKLEY       FAIR      57  55  94 CALM      30.02R
CLOQUET        CLEAR     59  48  67 CALM      30.03R
MCGREGOR       PTCLDY    61  55  82 CALM      30.03R
$$
MNZ071>073-080-081-089-090-097-098-280500-
   Southwest Minnesota

CITY           SKY/WX    TMP DP  RH WIND       PRES   REMARKS
MONTEVIDEO     PTCLDY    70  54  56 SE6       30.01S
GRANITE FALLS  PTCLDY    67  53  59 CALM      30.02R
CANBY          CLOUDY    72  51  47 SW5       30.01S
MARSHALL       MOCLDY    70  48  46 SW7       30.01R
REDWOOD FALLS  PTCLDY    69  56  62 S6        30.01R
OLIVIA         PTCLDY    68  52  56 CALM      30.01S
PIPESTONE      PTCLDY    70  48  46 S6        30.04R
WINDOM         PTCLDY    70  54  56 CALM      30.04S
WORTHINGTON    CLEAR     66  48  52 S7        30.05S
JACKSON        PTCLDY    68  54  60 S6        30.06S
TRACY          PTCLDY    67  54  62 S6        30.03R
SLAYTON        PTCLDY    66  50  55 CALM      30.05S
$$
MNZ065>067-074>077-082>085-091>093-280500-
   South Central Minnesota

CITY           SKY/WX    TMP DP  RH WIND       PRES   REMARKS
MANKATO        CLEAR     70  55  60 SE6       30.03S
NEW ULM        MOCLDY    70  52  52 S6        30.02S
ST JAMES       PTCLDY    68  57  68 SE5       30.04R
FAIRMONT       PTCLDY    66  54  63 S7        30.04S
GLENCOE        CLEAR     65  60  83 E3        30.02R
FARIBAULT      CLEAR     63  57  82 CALM      30.05R
OWATONNA       CLEAR     66  57  72 SE6       30.06R
WASECA         CLEAR     63  54  72 CALM      30.06R
ALBERT LEA     CLEAR     64  61  88 CALM      30.06R
$$
MNZ078>079-086>088-094>096-280500-
   Southeast Minnesota

CITY           SKY/WX    TMP DP  RH WIND       PRES   REMARKS
ROCHESTER      CLEAR     66  59  78 S6        30.08R
RED WING       CLEAR     63  59  88 CALM      30.03R
STANTON        CLEAR     64  58  81 CALM      30.03R
DODGE CENTER   CLEAR     68  55  64 CALM      30.07R
WINONA         CLEAR     63  61  94 CALM      30.05R
AUSTIN         CLEAR     64  59  82 CALM      30.06S
PRESTON        CLEAR     65  56  73 S5        30.08R
$$
ABBREVIATIONS USED IN REMARKS
   TC - TEMPERATURES IN CELSIUS
  WCI - WIND CHILL INDEX
   HX - HEAT INDEX
  VSB - VISIBILITY
$$


USA.gov is the U.S. government's official web portal to all federal, state and local government web resources and services.